30.06.2024;16:00;85
30.06.2024;15:00;89
30.06.2024;14:00;91
30.06.2024;13:00;87
30.06.2024;12:00;73
30.06.2024;11:00;68
30.06.2024;10:00;71
30.06.2024;09:00;79
30.06.2024;08:00;82
30.06.2024;07:00;74
30.06.2024;06:00;85
30.06.2024;05:00;89
30.06.2024;04:00;79
30.06.2024;03:00;55
30.06.2024;02:00;21
30.06.2024;01:00;28
30.06.2024;00:00;56
29.06.2024;23:00;80
29.06.2024;22:00;70
29.06.2024;21:00;72
29.06.2024;20:00;90
29.06.2024;19:00;96
29.06.2024;18:00;103
29.06.2024;17:00;104
29.06.2024;16:00;105
29.06.2024;15:00;105
29.06.2024;14:00;102
29.06.2024;13:00;100
29.06.2024;12:00;100
29.06.2024;11:00;93
29.06.2024;10:00;79
29.06.2024;09:00;46
29.06.2024;08:00;23
29.06.2024;07:00;14
29.06.2024;06:00;7
29.06.2024;05:00;7
29.06.2024;04:00;7
29.06.2024;03:00;11
29.06.2024;02:00;13
29.06.2024;01:00;19
29.06.2024;00:00;27
28.06.2024;23:00;41
28.06.2024;22:00;76
28.06.2024;21:00;97
28.06.2024;20:00;103
28.06.2024;19:00;107
28.06.2024;18:00;106
28.06.2024;17:00;102
